�N����,����,�~����,�C��,���x,�C��,����,���ϕ���,�ő�u�ԕ���,�ő厞����,���˗�,�I�_���x,�n�����x,�ő啗���N��,DTYPE
"22/02/10","00:10",0.0,2.6,78.2,1015.6,324.9,2.6,4.4,337.7,0.00,-0.8,6.3,"00:06:48",1
"22/02/10","00:20",0.0,2.6,78.7,1015.6,319.2,3.0,4.4,329.6,0.00,-0.7,6.3,"00:17:12",1
"22/02/10","00:30",0.0,2.6,79.0,1015.6,309.8,2.6,3.6,319.3,0.00,-0.6,6.3,"00:20:56",1
"22/02/10","00:40",0.0,2.5,79.4,1015.6,288.6,2.0,4.5,319.7,0.00,-0.7,6.3,"00:39:52",1
"22/02/10","00:50",0.0,2.6,79.8,1015.6,322.6,3.6,5.0,322.6,0.00,-0.5,6.2,"00:40:40",1
"22/02/10","01:00",0.0,2.7,80.0,1015.4,311.9,3.0,4.2,316.4,0.00,-0.4,6.2,"00:52:08",1
"22/02/10","01:10",0.0,2.7,80.2,1015.2,306.3,3.0,4.7,319.2,0.00,-0.3,6.2,"01:02:24",1
"22/02/10","01:20",0.0,2.8,80.2,1015.2,304.5,4.1,6.0,322.9,0.00,-0.2,6.1,"01:13:52",1
"22/02/10","01:30",0.0,2.8,80.1,1015.2,297.2,3.7,5.2,319.7,0.00,-0.2,6.1,"01:22:08",1
"22/02/10","01:40",0.0,2.7,80.2,1015.4,296.9,3.9,5.0,290.9,0.00,-0.3,6.1,"01:32:16",1
"22/02/10","01:50",0.0,2.8,80.3,1015.2,301.2,3.4,5.6,323.7,0.00,-0.2,6.1,"01:49:04",1
"22/02/10","02:00",0.0,2.9,80.2,1015.2,296.0,3.1,4.5,329.8,0.00,-0.1,6.1,"01:52:24",1
"22/02/10","02:10",0.0,3.1,79.9,1015.2,315.6,3.6,5.5,325.8,0.00,0.0,6.0,"02:08:00",1
"22/02/10","02:20",0.0,3.2,79.5,1015.2,325.9,4.6,6.8,325.6,0.00,0.0,6.1,"02:16:24",1
"22/02/10","02:30",0.0,3.1,79.4,1015.2,320.1,4.0,6.8,319.9,0.00,-0.1,6.0,"02:26:00",1
"22/02/10","02:40",0.0,3.1,79.3,1015.4,322.8,3.2,4.9,338.4,0.00,-0.1,5.9,"02:30:48",1
"22/02/10","02:50",0.0,3.1,79.3,1014.7,319.8,3.9,6.5,316.1,0.00,-0.1,6.0,"02:40:32",1
"22/02/10","03:00",0.0,3.1,79.2,1015.2,321.8,3.6,5.1,332.1,0.00,-0.1,6.0,"02:50:16",1
"22/02/10","03:10",0.0,3.1,79.3,1014.9,321.0,3.1,5.7,326.5,0.00,-0.1,6.1,"03:01:20",1
"22/02/10","03:20",0.0,3.0,79.3,1014.9,335.5,1.5,3.1,322.2,0.00,-0.2,5.8,"03:10:08",1
"22/02/10","03:30",0.0,2.9,79.5,1014.5,317.1,2.1,2.9,320.0,0.00,-0.3,5.9,"03:26:56",1
"22/02/10","03:40",0.0,2.9,79.8,1014.9,317.3,3.1,4.7,330.4,0.00,-0.2,5.7,"03:36:40",1
"22/02/10","03:50",0.0,2.9,80.0,1014.5,301.7,2.7,4.1,324.2,0.00,-0.2,5.9,"03:42:08",1
"22/02/10","04:00",0.0,2.8,80.3,1014.2,292.1,2.8,4.1,324.1,0.00,-0.2,6.1,"03:59:12",1
"22/02/10","04:10",0.0,2.9,80.4,1014.0,316.8,4.1,6.3,326.1,0.00,-0.1,5.8,"04:02:48",1
"22/02/10","04:20",0.0,2.8,80.5,1014.2,317.1,4.1,6.0,335.6,0.00,-0.2,5.9,"04:13:12",1
"22/02/10","04:30",0.0,2.9,80.7,1014.0,318.4,3.4,5.1,310.5,0.00,0.0,5.9,"04:24:08",1
"22/02/10","04:40",0.0,2.9,80.8,1013.8,322.0,3.1,5.0,330.3,0.00,0.0,5.8,"04:36:08",1
"22/02/10","04:50",0.0,3.0,80.9,1014.0,327.0,2.1,6.0,319.6,0.00,0.1,5.8,"04:41:36",1
"22/02/10","05:00",0.0,2.8,81.0,1014.0,320.5,1.7,4.4,339.9,0.00,-0.1,6.0,"04:50:40",1
"22/02/10","05:10",0.0,2.6,81.1,1014.2,327.1,2.2,3.5,312.4,0.00,-0.3,5.8,"05:00:32",1
"22/02/10","05:20",0.0,2.5,81.7,1014.0,328.0,3.6,5.5,318.1,0.00,-0.3,5.6,"05:14:48",1
"22/02/10","05:30",0.0,2.6,82.1,1014.0,320.3,3.7,4.9,327.8,0.00,-0.1,5.7,"05:28:24",1
"22/02/10","05:40",0.0,2.5,82.5,1014.0,325.1,3.5,5.5,331.6,0.00,-0.1,5.7,"05:31:44",1
"22/02/10","05:50",0.0,2.6,82.8,1013.8,309.4,4.0,5.7,325.6,0.00,0.0,5.7,"05:43:52",1
"22/02/10","06:00",0.0,2.7,83.0,1014.0,309.2,3.6,4.7,321.2,0.00,0.1,5.7,"05:53:04",1
"22/02/10","06:10",0.0,2.6,83.2,1014.0,299.4,2.8,4.7,317.8,0.00,0.1,5.7,"06:01:04",1
"22/02/10","06:20",0.0,2.6,83.4,1014.2,308.4,1.6,2.9,311.2,0.00,0.1,5.7,"06:10:32",1
"22/02/10","06:30",0.0,2.5,83.6,1014.0,320.8,2.0,2.8,319.5,0.00,0.0,5.7,"06:22:48",1
"22/02/10","06:40",0.0,2.5,84.1,1014.2,302.9,2.5,3.6,309.7,0.00,0.1,5.7,"06:34:56",1
"22/02/10","06:50",0.0,2.7,84.5,1014.0,303.7,2.8,3.7,313.3,0.00,0.4,5.8,"06:44:40",1
"22/02/10","07:00",0.0,2.7,84.7,1014.0,322.2,2.5,3.6,330.5,0.00,0.4,5.8,"06:56:32",1
"22/02/10","07:10",0.0,2.8,85.0,1014.2,326.4,3.1,5.1,329.7,0.00,0.6,5.8,"07:02:56",1
"22/02/10","07:20",0.0,2.9,85.2,1014.0,319.0,3.1,5.5,324.9,0.00,0.7,5.5,"07:16:56",1
"22/02/10","07:30",0.0,3.0,85.1,1013.8,321.7,3.1,3.7,304.5,0.00,0.8,5.7,"07:20:16",1
"22/02/10","07:40",0.0,2.8,85.0,1013.8,319.0,1.6,2.8,318.5,0.00,0.6,5.7,"07:30:08",1
"22/02/10","07:50",0.0,2.7,85.1,1014.0,293.1,1.3,1.7,286.4,0.00,0.5,5.5,"07:43:44",1
"22/02/10","08:00",0.0,2.7,85.4,1014.0,299.9,1.6,2.5,322.7,0.00,0.5,5.8,"07:55:20",1
"22/02/10","08:10",0.0,2.9,85.6,1014.0,310.4,2.0,3.5,324.0,0.00,0.8,5.4,"08:03:28",1
"22/02/10","08:20",0.0,3.0,85.8,1014.2,295.3,1.8,2.4,313.9,0.01,0.9,5.8,"08:13:12",1
"22/02/10","08:30",0.0,3.2,86.0,1014.0,300.4,2.1,2.6,325.4,0.02,1.1,5.8,"08:24:16",1
"22/02/10","08:40",0.0,3.5,86.1,1014.0,291.2,2.0,2.4,310.3,0.03,1.4,5.8,"08:32:24",1
"22/02/10","08:50",0.0,3.8,86.0,1013.8,305.7,2.2,3.1,306.8,0.05,1.7,5.8,"08:45:04",1
"22/02/10","09:00",0.0,4.2,85.6,1014.2,299.9,2.1,2.8,309.2,0.07,2.0,5.7,"08:56:56",1
"22/02/10","09:10",0.0,4.4,84.6,1013.8,306.2,2.8,3.7,326.4,0.09,2.1,5.7,"09:05:12",1
"22/02/10","09:20",0.0,4.8,83.3,1014.2,304.3,3.1,4.4,315.6,0.10,2.3,5.7,"09:12:24",1
"22/02/10","09:30",0.0,5.3,81.9,1014.0,297.8,2.3,3.3,310.3,0.14,2.5,5.4,"09:23:14",1
"22/02/10","09:40",0.0,5.8,80.0,1014.5,305.1,2.3,3.3,307.4,0.14,2.7,5.7,"09:35:14",1
"22/02/10","09:50",0.0,6.3,78.2,1014.2,300.0,2.2,3.3,317.8,0.16,2.8,5.7,"09:43:18",1
"22/02/10","10:00",0.0,6.7,75.8,1014.2,294.7,2.0,2.8,268.1,0.13,2.8,5.7,"09:53:30",1
"22/02/10","10:10",0.0,6.9,74.3,1014.2,288.1,1.7,3.1,316.6,0.15,2.7,5.8,"10:06:16",1
"22/02/10","10:20",0.0,7.2,72.8,1014.0,282.7,2.2,3.2,264.5,0.22,2.7,5.9,"10:16:38",1
"22/02/10","10:30",0.0,8.0,70.8,1014.2,267.9,1.1,1.9,337.4,0.27,3.1,5.8,"10:21:52",1
"22/02/10","10:40",0.0,8.2,69.5,1014.2,238.0,1.5,3.3,226.6,0.27,3.0,6.0,"10:39:00",1
"22/02/10","10:50",0.0,8.2,69.1,1014.2,182.7,1.6,2.6,127.7,0.24,2.9,6.1,"10:45:20",1
"22/02/10","11:00",0.0,8.0,68.7,1014.2,167.5,1.6,3.2,168.1,0.14,2.6,5.9,"10:57:04",1
"22/02/10","11:10",0.0,8.1,67.9,1014.2,234.2,1.2,2.4,195.7,0.16,2.6,6.0,"11:06:48",1
"22/02/10","11:20",0.0,8.1,67.3,1013.8,182.6,1.1,2.6,200.5,0.15,2.5,6.3,"11:17:04",1
"22/02/10","11:30",0.0,8.1,67.5,1013.8,214.5,1.7,3.3,185.6,0.14,2.5,6.2,"11:24:32",1
"22/02/10","11:40",0.0,8.4,67.1,1013.5,283.0,1.5,2.7,298.6,0.19,2.7,6.1,"11:30:02",1
"22/02/10","11:50",0.0,8.9,66.3,1013.3,267.3,1.7,3.7,255.2,0.24,3.0,6.3,"11:42:16",1
"22/02/10","12:00",0.0,9.1,64.8,1013.3,256.4,1.3,2.8,240.6,0.21,2.9,6.2,"11:50:08",1
"22/02/10","12:10",0.0,8.7,65.5,1013.3,158.2,1.5,3.2,118.8,0.17,2.6,6.5,"12:02:48",1
"22/02/10","12:20",0.0,8.3,66.1,1013.3,173.6,1.7,3.4,351.0,0.17,2.4,6.5,"12:19:04",1
"22/02/10","12:30",0.0,8.3,65.0,1012.8,301.1,2.0,3.7,355.1,0.20,2.2,6.4,"12:20:16",1
"22/02/10","12:40",0.0,8.6,64.2,1012.8,341.8,1.8,4.2,341.6,0.18,2.3,6.5,"12:39:12",1
"22/02/10","12:50",0.0,8.7,63.1,1012.6,348.6,2.1,4.9,320.7,0.16,2.1,6.6,"12:49:44",1
"22/02/10","13:00",0.0,9.0,62.4,1012.8,339.7,2.0,4.1,324.4,0.17,2.2,6.6,"12:51:04",1
"22/02/10","13:10",0.0,8.8,62.8,1012.3,339.1,2.2,4.2,323.5,0.12,2.1,6.7,"13:01:20",1
"22/02/10","13:20",0.0,8.5,62.8,1012.6,336.2,1.6,3.1,322.6,0.09,1.9,6.7,"13:10:48",1
"22/02/10","13:30",0.0,8.4,64.0,1012.1,343.8,2.0,3.9,347.7,0.11,2.0,6.7,"13:26:16",1
"22/02/10","13:40",0.0,8.2,64.6,1011.9,345.3,1.8,3.5,357.5,0.11,2.0,6.8,"13:30:32",1
"22/02/10","13:50",0.0,8.2,65.7,1012.1,335.9,2.7,4.5,347.3,0.13,2.2,6.7,"13:42:08",1
"22/02/10","14:00",0.0,8.2,66.5,1012.1,331.7,2.2,3.7,324.8,0.18,2.4,6.8,"13:54:48",1
"22/02/10","14:10",0.0,8.3,65.0,1012.1,342.1,1.7,3.6,346.1,0.17,2.2,6.9,"14:03:12",1
"22/02/10","14:20",0.0,8.4,65.4,1012.1,344.4,1.6,3.3,342.4,0.17,2.3,6.9,"14:19:04",1
"22/02/10","14:30",0.0,8.5,65.0,1012.1,341.1,1.5,3.3,332.4,0.18,2.3,6.8,"14:26:16",1
"22/02/10","14:40",0.0,8.5,63.8,1012.1,270.6,1.3,3.2,267.8,0.16,2.1,7.0,"14:38:16",1
"22/02/10","14:50",0.0,8.6,63.7,1012.1,255.3,1.7,3.1,302.1,0.15,2.2,7.0,"14:43:28",1
"22/02/10","15:00",0.0,8.6,62.8,1012.1,270.2,2.1,3.4,317.8,0.17,2.0,6.9,"14:57:36",1
"22/02/10","15:10",0.0,8.9,62.6,1012.1,229.2,1.0,2.7,285.0,0.16,2.2,7.0,"15:00:24",1
"22/02/10","15:20",0.0,9.0,59.7,1011.9,260.3,2.5,4.8,302.5,0.18,1.6,7.2,"15:18:34",1
"22/02/10","15:30",0.0,9.6,56.9,1012.1,353.2,1.8,3.7,355.7,0.22,1.5,7.3,"15:20:56",1
"22/02/10","15:40",0.0,9.8,55.0,1012.3,332.2,2.3,3.9,340.5,0.20,1.2,7.1,"15:31:52",1
"22/02/10","15:50",0.0,9.9,52.8,1012.1,296.2,1.6,4.2,345.6,0.21,0.8,7.2,"15:48:48",1
"22/02/10","16:00",0.0,10.2,52.5,1011.9,339.1,2.0,4.0,323.5,0.20,1.0,7.5,"15:50:02",1
"22/02/10","16:10",0.0,9.5,51.6,1012.1,314.8,3.7,6.6,315.2,0.17,0.1,7.3,"16:09:06",1
"22/02/10","16:20",0.0,9.7,53.8,1011.6,282.1,2.6,5.6,299.4,0.15,0.8,7.2,"16:18:16",1
"22/02/10","16:30",0.0,9.7,53.0,1012.3,329.3,2.2,4.5,349.8,0.08,0.6,7.3,"16:26:48",1
"22/02/10","16:40",0.0,9.0,53.9,1012.1,341.5,3.4,6.6,348.3,0.07,0.2,7.4,"16:39:44",1
"22/02/10","16:50",0.0,8.2,55.8,1012.1,339.6,4.6,7.7,341.7,0.02,-0.1,7.4,"16:40:02",1
"22/02/10","17:00",0.0,8.1,56.5,1011.9,328.5,4.0,7.3,343.6,0.01,0.0,7.5,"16:50:40",1
"22/02/10","17:10",0.0,8.3,56.1,1011.9,312.8,4.4,6.7,310.8,0.03,0.1,7.3,"17:08:20",1
"22/02/10","17:20",0.0,8.4,56.2,1011.9,318.6,4.0,6.7,323.0,0.02,0.2,7.5,"17:10:40",1
"22/02/10","17:30",0.0,8.0,56.6,1011.9,325.1,4.0,5.8,338.9,0.00,0.0,7.5,"17:25:52",1
"22/02/10","17:40",0.0,7.6,57.9,1011.9,323.6,3.0,5.8,319.8,0.00,-0.1,7.6,"17:30:48",1
"22/02/10","17:50",0.0,7.4,59.5,1011.9,320.1,3.7,6.4,303.7,0.00,0.1,7.4,"17:46:50",1
"22/02/10","18:00",0.0,7.3,60.5,1012.1,319.2,4.2,6.5,325.6,0.00,0.2,7.6,"17:54:00",1
"22/02/10","18:10",0.0,7.1,61.9,1012.3,317.3,3.6,6.0,332.8,0.00,0.3,7.6,"18:09:28",1
"22/02/10","18:20",0.0,6.8,63.6,1012.6,321.2,3.2,5.5,328.7,0.00,0.4,7.2,"18:10:24",1
"22/02/10","18:30",0.0,6.7,64.9,1012.3,315.9,3.5,6.6,337.1,0.00,0.6,7.4,"18:27:44",1
"22/02/10","18:40",0.0,6.8,65.7,1012.1,314.1,5.0,7.8,341.1,0.00,0.9,7.2,"18:36:32",1
"22/02/10","18:50",0.0,6.7,65.7,1012.6,327.3,4.2,6.6,317.2,0.00,0.8,7.2,"18:41:12",1
"22/02/10","19:00",0.0,6.6,66.3,1012.3,331.6,3.0,5.1,322.5,0.00,0.8,7.4,"18:55:20",1
"22/02/10","19:10",0.0,6.3,67.3,1012.6,311.0,2.0,5.4,326.9,0.00,0.7,7.2,"19:08:48",1
"22/02/10","19:20",0.0,6.4,68.8,1012.6,304.4,4.4,9.3,308.6,0.00,1.1,7.1,"19:15:12",1
"22/02/10","19:30",0.0,6.2,69.8,1012.8,297.3,2.6,5.7,331.2,0.00,1.1,7.3,"19:22:56",1
"22/02/10","19:40",0.0,5.8,70.9,1012.8,264.4,1.6,6.4,301.7,0.00,1.0,7.1,"19:30:02",1
"22/02/10","19:50",0.0,6.0,72.2,1012.6,303.3,3.1,5.7,321.4,0.00,1.4,7.2,"19:43:44",1
"22/02/10","20:00",0.0,6.0,73.0,1012.8,310.6,3.9,7.3,303.2,0.00,1.6,7.1,"19:52:48",1
"22/02/10","20:10",0.0,5.6,73.4,1013.0,279.8,1.0,2.0,260.3,0.00,1.3,7.1,"20:08:32",1
"22/02/10","20:20",0.0,5.3,74.7,1012.8,263.2,2.1,4.1,325.8,0.00,1.2,7.0,"20:19:12",1
"22/02/10","20:30",0.0,5.4,75.2,1012.6,328.3,2.5,4.2,319.6,0.00,1.4,7.1,"20:20:40",1
"22/02/10","20:40",0.0,5.3,75.9,1012.8,334.1,2.5,4.3,331.2,0.00,1.4,6.9,"20:33:44",1
"22/02/10","20:50",0.0,5.5,76.3,1013.0,333.6,3.5,8.3,298.8,0.00,1.7,7.0,"20:40:02",1
"22/02/10","21:00",0.0,5.5,76.6,1013.3,324.0,4.9,8.7,329.7,0.00,1.8,7.1,"20:55:36",1
"22/02/10","21:10",0.0,5.4,77.5,1013.3,324.7,5.0,8.1,312.8,0.00,1.8,6.9,"21:02:40",1
"22/02/10","21:20",0.0,5.1,78.5,1013.5,327.2,3.9,7.1,320.1,0.00,1.7,6.9,"21:19:36",1
"22/02/10","21:30",0.0,5.3,79.0,1013.5,327.4,5.9,8.2,308.5,0.00,2.0,6.9,"21:23:12",1
"22/02/10","21:40",0.0,5.1,79.5,1013.5,318.2,6.0,9.1,318.2,0.00,1.9,6.8,"21:33:52",1
"22/02/10","21:50",0.0,5.0,80.6,1013.0,325.9,5.6,7.9,322.4,0.00,2.0,6.8,"21:48:40",1
"22/02/10","22:00",0.0,4.9,81.9,1013.3,329.1,6.0,9.0,333.5,0.00,2.1,6.9,"21:50:40",1
"22/02/10","22:10",0.0,5.0,83.2,1013.3,321.1,6.1,8.2,324.5,0.00,2.4,6.7,"22:01:20",1
"22/02/10","22:20",0.0,4.8,84.2,1013.3,322.8,6.1,8.9,340.2,0.00,2.4,6.7,"22:18:24",1
"22/02/10","22:30",0.0,4.6,85.0,1013.0,323.1,6.4,10.3,319.7,0.00,2.3,6.5,"22:25:36",1
"22/02/10","22:40",0.0,4.5,85.5,1013.0,321.1,6.0,7.9,321.1,0.00,2.3,6.6,"22:30:08",1
"22/02/10","22:50",0.0,4.6,85.4,1013.0,317.6,6.0,8.5,328.7,0.00,2.4,6.7,"22:41:04",1
"22/02/10","23:00",0.0,4.6,85.0,1013.0,315.1,5.2,7.1,329.0,0.00,2.3,6.4,"22:54:56",1
"22/02/10","23:10",0.0,4.7,84.4,1013.3,316.3,5.7,7.8,330.0,0.00,2.3,6.5,"23:02:00",1
"22/02/10","23:20",0.0,4.6,84.2,1013.0,328.9,5.2,7.1,340.1,0.00,2.2,6.5,"23:10:32",1
"22/02/10","23:30",0.0,4.4,84.8,1013.3,321.6,5.2,7.4,323.0,0.00,2.1,6.5,"23:28:24",1
"22/02/10","23:40",0.0,4.5,85.1,1013.3,324.0,6.0,8.0,339.3,0.00,2.3,6.3,"23:36:08",1
"22/02/10","23:50",0.0,4.5,85.6,1013.8,322.7,5.5,7.3,331.7,0.00,2.3,6.2,"23:42:40",1
"22/02/10","24:00",0.0,4.2,86.0,1013.8,329.9,4.5,6.7,328.2,0.00,2.1,6.4,"23:50:16",1
